Location: Newark
(9.4667°S, 159.8167°E)
Time: 12:39:07
(UTC+00:00)

Courier 1B Rocket - Pass Details

Date: 20 November 2019
Orbit: 921 x 1202 km, 28.2° (Epoch: 14 December)

Event Time Altitude Azimuth Distance (km) Brightness Sun altitude
Rises 00:47:58 0° 267° (W) 3,565 7.9 79.0°
Reaches altitude 10° 00:51:11 10° 283° (WNW) 2,641 7.4 79.3°
Maximum altitude 00:55:51 21° 331° (NNW) 1,995 6.8 79.6°
Drops below altitude 10° 01:00:40 10° 18° (NNE) 2,744 7.4 79.8°
Sets 01:04:07 0° 33° (NNE) 3,744 8.0 79.9°
